カタログに戻る

ONEWEB-0530

運用中通信PO
NORAD 55796·PAYLOAD·🇬🇧 United Kingdom

打ち上げ Mar 9, 2023 から Cape Canaveral Space Force Station

Loading…

次のパス (今後24時間)

TLE

最新Source: CelesTrak SupGP

元期: Sep 14, 2026, 15:25 UTC

1 55796C 23029A   26257.64286296 -.00002356  00000+0 -58017-2 0  2570
2 55796  87.9124 256.6155 0002178 102.2060 297.9188 13.20773449    19

AllMySatでONEWEB-0530をリアルタイム追跡

Download on the App Store